GW4997 Weather Reports


time (UTC)temp
F
wind
direction
speed
knots
gust
knots
rain 1hr
in
rain 24hr
in
rain mn
in
humidity
%
barometer
mb
20260504175517 73 235 2.6 6.1 0.00 0.00 0.00 36 1011.1
20260504174521 72 261 1.7 6.1 0.00 0.00 0.00 37 1011.2
20260504173518 72 242 2.6 7.0 0.00 0.00 0.00 37 1011.3
20260504172518 72 261 1.7 5.2 0.00 0.00 0.00 38 1011.5
20260504171518 71 238 1.7 6.1 0.00 0.00 0.00 38 1011.7
20260504170539 71 268 1.7 6.1 0.00 0.00 0.00 38 1011.8
20260504150518 66 242 1.7 3.5 0.00 0.00 0.00 50 1013.3
20260504140559 62 251 2.6 4.3 0.00 0.00 0.00 54 1013.8
20260504130517 57 246 1.7 3.5 0.00 0.00 0.00 65 1014.4
20260504110519 40 197 0.0 0.9 0.00 0.00 0.00 89 1015.6
20260504100517 39 0.0 0.0 0.00 0.00 0.00 89 1015.6
20260504081519 39 0.0 0.0 0.00 0.00 0.00 85 1015.5
20260504080517 39 0.0 0.0 0.00 0.00 0.00 84 1015.4
20260504050520 42 0.0 0.0 0.00 0.00 0.00 78 1014.8
20260504045517 42 0.0 0.0 0.00 0.00 0.00 77 1014.7
20260504044517 42 0.0 0.0 0.00 0.00 0.00 73 1014.7
20260504043521 43 0.0 0.0 0.00 0.00 0.00 70 1014.6
20260504042520 43 0.0 0.0 0.00 0.00 0.00 70 1014.4
20260504041518 43 0.0 0.0 0.00 0.00 0.00 70 1014.3
20260504040518 43 0.0 0.0 0.00 0.00 0.00 69 1014.3
20260504035538 43 0.0 0.0 0.00 0.00 0.00 70 1014.2
20260504034518 43 0.0 0.0 0.00 0.00 0.00 72 1014.1
20260504033524 43 0.0 0.0 0.00 0.00 0.00 71 1014.1
20260504032600 43 0.0 0.0 0.00 0.00 0.00 68 1014.0
20260504031519 43 0.0 0.0 0.00 0.00 0.00 69 1014.0
20260504030519 44 0.0 0.0 0.00 0.00 0.00 72 1014.0
20260504025519 44 0.0 0.0 0.00 0.00 0.00 70 1014.0
20260504024516 44 0.0 0.0 0.00 0.00 0.00 66 1014.0
20260504023520 44 0.0 0.0 0.00 0.00 0.00 64 1014.0
20260504022520 44 0.0 0.0 0.00 0.00 0.00 63 1014.0
20260504021520 45 0.0 0.0 0.00 0.00 0.00 63 1013.9
20260504020517 45 0.0 0.0 0.00 0.00 0.00 64 1013.9
20260504015517 46 0.0 0.0 0.00 0.00 0.00 63 1013.9
20260504014518 46 0.0 0.0 0.00 0.00 0.00 63 1013.8
20260504013521 46 0.0 0.0 0.00 0.00 0.00 63 1013.7
20260504012518 47 0.0 0.0 0.00 0.00 0.00 64 1013.5
20260504011518 47 0.0 0.0 0.00 0.00 0.00 62 1013.4
20260504010538 48 0.0 0.0 0.00 0.00 0.00 62 1013.2
20260504005519 49 0.0 0.0 0.00 0.00 0.00 61 1013.1
20260504004519 50 233 0.0 0.9 0.00 0.00 0.00 60 1012.9
20260504003519 51 0.0 0.0 0.00 0.00 0.00 54 1012.8
20260504002539 52 0.0 0.0 0.00 0.00 0.00 52 1012.6
20260504001540 53 229 0.9 1.7 0.00 0.00 0.00 50 1012.5
20260504000520 54 218 0.9 1.7 0.00 0.00 0.00 46 1012.4
20260503235537 55 219 0.0 1.7 0.00 0.00 0.00 44 1012.3
20260503234517 56 216 0.9 1.7 0.00 0.00 0.00 44 1012.2
20260503233517 57 206 0.0 1.7 0.00 0.00 0.00 41 1012.0
20260503231018 58 240 1.7 4.3 0.00 0.00 0.00 38 1011.8
20260503230018 58 234 1.7 3.5 0.00 0.00 0.00 38 1011.8
20260503225018 58 256 0.9 1.7 0.00 0.00 0.00 36 1011.8
20260503224018 59 240 0.9 4.3 0.00 0.00 0.00 38 1011.8
20260503223019 59 248 0.9 2.6 0.00 0.00 0.00 37 1011.7
20260503222019 59 244 1.7 4.3 0.00 0.00 0.00 37 1011.7
20260503221039 59 244 2.6 5.2 0.00 0.00 0.00 36 1011.7
20260503220019 59 234 1.7 3.5 0.00 0.00 0.00 35 1011.7
20260503215017 60 265 2.6 6.1 0.00 0.00 0.00 36 1011.7
20260503214016 59 226 1.7 7.0 0.00 0.00 0.00 36 1011.7
20260503213019 60 252 1.7 6.1 0.00 0.00 0.00 35 1011.6
20260503212020 60 286 1.7 4.3 0.00 0.00 0.00 35 1011.5
20260503211200 60 245 2.6 5.2 0.00 0.00 0.00 35 1011.6
20260503210018 60 273 1.7 5.2 0.00 0.00 0.00 35 1011.5
20260503205018 59 246 3.5 7.0 0.00 0.00 0.00 35 1011.6
20260503204018 60 245 3.5 8.7 0.00 0.00 0.00 35 1011.5
20260503203018 60 253 3.5 6.1 0.00 0.00 0.00 35 1011.5
20260503202018 60 308 2.6 7.0 0.00 0.00 0.00 36 1011.5
20260503201018 60 27 2.6 7.8 0.00 0.00 0.00 36 1011.6
20260503200018 60 290 1.7 7.0 0.00 0.00 0.00 36 1011.5
20260503195019 60 250 2.6 7.8 0.00 0.00 0.00 36 1011.6
20260503194019 60 261 1.7 6.1 0.00 0.00 0.00 36 1011.7
20260503193019 60 343 2.6 7.0 0.00 0.00 0.00 35 1011.8
20260503192016 60 226 2.6 7.0 0.00 0.00 0.00 36 1011.9
20260503191016 59 260 2.6 6.1 0.00 0.00 0.00 37 1012.0
20260503190017 59 317 1.7 5.2 0.00 0.00 0.00 37 1012.2
20260503185040 59 231 3.5 6.1 0.00 0.00 0.00 37 1012.3
20260503184020 59 336 2.6 5.2 0.00 0.00 0.00 37 1012.4
20260503183037 58 313 2.6 7.8 0.00 0.00 0.00 39 1012.4
20260503182017 57 338 3.5 7.0 0.00 0.00 0.00 39 1012.6
20260503181017 56 260 2.6 7.0 0.00 0.00 0.00 41 1012.7
20260503180040 56 241 2.6 5.2 0.00 0.00 0.00 41 1012.7